www.pogodaiklimat.ru

Погода и климат >> Архив погоды >> Россия >> Хабаровский край >> Удское


ПОГОДА в Удском

  • Прогноз погоды в Удском
  • Монитор погоды в Удском

АРХИВ ПОГОДЫ в Удском

Время (UTC), дата Ветер
(напр.,м/с)
 
Видим.   Явления Облачность Т
(С)
Тd
(С)
f
(%)
Тe
(С)
Тes
(С)
Комфортность P
(гПа)
Po
(гПа)
Тmin
(С)
Tmax
(С)
R
(мм)
R24
(мм)
S
(см)
18 14.09 штиль 0 50 км 3/0
[Ac lent]
-2.9 -3.6 95 -4 -4 1008.9 1001.1
21 14.09 штиль 0 50 км 4/3 1000 м
[Sc Ac lent Cc]
-2.6 -3.3 95 -4 -4 1009.8 1002.0 -3.0
00 15.09 З 1 50 км 4/3 1000 м
[Sc Ac trans Ci fib]
+7.0 +2.4 73 +6 +9 1008.5 1001.0
03 15.09 штиль 0 50 км 9/9 600 м
[Cb cap]
+12.6 +5.3 61 +12 +13 1006.8 999.4
06 15.09 З 1 50 км слаб. дождь 10/8 600 м
[Cb cap As op]
+12.2 +9.2 82 +12 +12 1004.4 997.0
09 15.09 З 1 50 км слаб. дождь 10/8 600 м
[Cb cap As op]
+10.9 +9.3 90 +11 +11 1004.2 996.7 +13.1 0.8
12 15.09 С 1 20 км дождь {ливн. осадки} 10/6 600 м
[Cb cap As op]
+9.0 +7.5 90 +8 +8 1000.4 993.0
15 15.09 С 1 20 км слаб. дождь 10/4 600 м
[Cb cap As op]
+8.1 +7.2 94 +7 +7 1000.8 993.4
18 15.09 З 2 20 км в посл. час дождь {ливн. осадки} 10/3 600 м
[Cb cap As op]
+5.9 +1.1 71 +4 +4 1003.7 996.1
21 15.09 З 1 20 км 6/0
[Ac As]
+4.1 -0.8 70 +3 +3 1004.0 996.4 +2.2 7
00 16.09 З 1 50 км 5/1 1000 м
[Cu med, cong Ac lent]
+9.1 -1.2 48 +9 +12 1003.4 995.9
03 16.09 З 1 20 км слаб. дождь 10/5 600 м
[Cb cap As op]
+6.4 +1.7 72 +6 +6 1005.2 997.6
06 16.09 Ю 3 20 км слаб. ливневой дождь 8/8 600 м
[Cb cap]
+5.7 +2.3 79 +2 +3 1007.1 999.5
09 16.09 Ю 3 50 км {ливн. осадки} 4/4 1000 м
[Sc]
+6.2 +0.3 66 +3 +3 1008.1 1000.5 +9.7 0.5
12 16.09 З 1 50 км {ливн. осадки} 3/1 1000 м
[Sc Ac lent]
+3.0 +0.6 84 +1 +1 1009.7 1002.1
15 16.09 З 1 50 км 3/1 1000 м
[Sc Ac lent]
+2.8 +0.7 86 +1 +1 1010.0 1002.4
18 16.09 З 1 50 км 8/8 1000 м
[Sc]
+3.6 +1.0 83 +2 +2 1010.4 1002.9
21 16.09 З 1 50 км 3/3 1000 м
[Sc]
+1.1 -0.6 88 -1 -1 1011.5 1003.7 +0.9
00 17.09 З 2 50 км 5/5 1000 м
[Sc]
+8.0 +1.4 63 +6 +8 1011.5 1004.0
03 17.09 З 3 50 км 8/3 1000 м
[Cu med, cong Ac trans Ci fib]
+10.7 -2.8 39 +9 +12 1011.4 1003.9
06 17.09 ЮЗ 3 50 км 8/1 1000 м
[Sc diur, vesp Ac trans Cc]
+11.7 -2.5 37 +11 +12 1010.2 1002.7
09 17.09 штиль 0 50 км 10/0
[As op]
+8.3 +4.7 78 +8 +8 1009.6 1002.1 +13.0
12 17.09 З 1 20 км слаб. ливневой дождь 10/8 600 м
[Cb cap As op]
+5.8 +4.6 92 +5 +5 1010.0 1002.4
15 17.09 С 1 20 км слаб. ливневой дождь 10/8 600 м
[Cb cap As op]
+5.1 +4.2 94 +4 +4 1008.4 1000.8
18 17.09 С 2 20 км слаб. ливневой дождь 10/8 600 м
[Cb cap As op]
+5.5 +4.3 92 +3 +3 1006.9 999.3
21 17.09 СВ 2 10 км 10/8 300 м
[Cb cap As op]
+6.4 +5.5 94 +4 +4 1006.9 999.3 +4.9 10
00 18.09 С 3 10 км дождь {ливн. осадки} 10/8 300 м
[Cb cap As op]
+6.6 +5.7 94 +3 +3 1008.1 1000.6
03 18.09 С 3 20 км слаб. дождь 10/8 300 м
[Cb cap As op]
+6.7 +5.1 90 +4 +4 1008.5 1001.0
06 18.09 С 3 10 км слаб. ливневой дождь 10/10 300 м
[Cb cap]
+6.7 +5.1 90 +4 +4 1008.8 1001.3
09 18.09 С 3 10 км слаб. дождь 10/8 300 м
[Cb cap As op]
+7.0 +9.0 100 +4 +4 1010.4 1002.9 +7.3 7
12 18.09 С 2 10 км слаб. ливневой дождь 10/8 300 м
[Cb cap As op]
+7.2 +4.7 84 +5 +5 1010.5 1003.0
15 18.09 С 1 10 км слаб. дождь 10/8 300 м
[Cb cap As op]
+6.5 +3.7 82 +6 +6 1010.8 1003.2
18 18.09 С 1 10 км слаб. дождь 10/8 300 м
[Cb cap As op]
+6.5 +3.2 79 +6 +6 1011.7 1004.1
21 18.09 С 1 20 км {дождь} 10/8 300 м
[St As op Cs]
+7.3 +1.7 68 +7 +7 1012.7 1005.1 +6.3 1
00 19.09 В 3 20 км {дождь} 8/4 300 м
[Cb cap Ac trans Cc]
+10.1 +2.1 58 +8 +9 1013.5 1005.9
03 19.09 В 3 50 км 8/5 600 м
[Cb cap Ci fib]
+11.6 +2.6 54 +10 +13 1013.2 1005.6
06 19.09 ЮВ 3 50 км 4/1 1000 м
[Sc diur, vesp Ci fib]
+12.8 +0.7 44 +12 +14 1013.3 1005.9
09 19.09 СВ 1 50 км 4/0
[Ac trans Cc]
+8.9 +1.1 58 +9 +9 1013.8 1006.2 +13.5
12 19.09 штиль 0 50 км 5/0
[Ac trans Cc]
+0.8 -0.6 90 -0 -0 1015.5 1007.7
15 19.09 штиль 0 50 км 6/0
[Ac trans Cc]
-1.8 -2.9 92 -3 -3 1015.6 1007.8
18 19.09 штиль 0 50 км 6/0
[Ac trans Cc]
-3.3 -4.1 94 -5 -5 1016.2 1008.2
21 19.09 штиль 0 50 км 3/0
[Cc]
-4.5 -5.1 96 -6 -6 1016.5 1008.5 -4.6
00 20.09 СВ 1 50 км 1/0
[Ci fib]
+4.0 +1.2 82 +3 +7 1016.6 1008.9
03 20.09 ЮВ 1 50 км 3/0
[Ac inh]
+11.8 +2.9 54 +12 +20 1015.5 1008.1
06 20.09 С 1 50 км 3/0
[Cc]
+15.1 +3.5 46 +16 +20 1014.6 1007.2
09 20.09 штиль 0 50 км 9/0
[Cc]
+10.7 +4.2 64 +10 +10 1015.0 1007.4 +16.5
12 20.09 С 1 50 км 8/0
[Ac lent Cs]
+2.1 +1.0 92 0 0 1016.1 1008.4
15 20.09 штиль 0 50 км 10/0
[Cs]
-0.6 -1.5 94 -2 -2 1016.6 1008.8
18 20.09 штиль 0 50 км 10/0
[Ac As Cs]
+0.1 -0.5 96 -1 -1 1016.6 1008.8
21 20.09 С 1 50 км слаб. дождь 10/3 1000 м
[Sc Ac lent Cs]
+2.1 +1.6 96 0 0 1017.0 1009.3 -1.1 0.0
00 21.09 З 1 50 км слаб. дождь 10/4 1000 м
[Sc Ac trans]
+5.6 +4.2 91 +4 +5 1017.2 1009.5
03 21.09 З 1 20 км слаб. дождь 10/6 600 м
[Cb cap As op]
+7.2 +6.1 93 +6 +7 1017.5 1009.9
06 21.09 ЮЗ 1 50 км {дождь} 10/9 600 м
[Cb cap Cc]
+10.1 +6.9 81 +10 +10 1015.1 1007.5
09 21.09 штиль 0 50 км 4/3 600 м
[Cb cap Ac trans Cc]
+8.3 +6.3 87 +7 +7 1015.1 1007.5 +10.6 0.9
12 21.09 Ю 1 50 км 8/4 600 м
[Cb cap Ac As]
+2.9 +2.1 94 +1 +1 1016.2 1008.5

 

Местоположение метеостанции Удское (Хабаровский край, Россия): широта 54.50 долгота 134.40 высота над уровнем моря 62 м.

В архиве по умолчанию представлена погода в Удском за последнюю неделю. Архивные данные за месяц целиком и за предыдущие месяцы, начиная с января 2011 года, Вы можете получить, выбрав интересующий диапазон дат из раскрывающегося списка и нажав кнопку "Ввод!".


*Определитесь, кто Вы:
робот инопланетянин человек

Внимание! Время в таблицах - всемирное. Для получения местного времени необходимо прибавить поправку, которая равна 10 ч.

Смотрите также архив погоды в соседних городах и на ближайших метеорологических станциях:

Погода в Чумикане (Хабаровский край, Россия) (63 км)
Погода в Джане (Хабаровский край, Россия) (91 км)
Погода в Экимчане (Амурская область, Россия) (186 км)
Погода в Бурукане (Хабаровский край, Россия) (193 км)
Погода в Большом Шантаре (Хабаровский край, Россия) (203 км)
Погода в Софийском Прииске (Хабаровский край, Россия) (250 км)
Погода в Локшаке (Амурская область, Россия) (259 км)
Погода в Стойбе (Амурская область, Россия) (260 км)
Погода в Веселой Горке (Хабаровский край, Россия) (262 км)
Погода в Им. Полины Осипенко (Хабаровский край, Россия) (270 км)

Пояснения к столбцам:

Ветер - указаны скорость ветра в м/с - средняя за 10 мин, порывы в срок и между сроками (в фигурных скобках) и направление, откуда дует ветер: С - северный, СВ - северо-восточный, В - восточный, ЮВ - юго-восточный, Ю - южный, ЮЗ - юго-западный, З - западный, СЗ - северо-западный.
Видимость - горизонтальная дальность видимости в метрах или километрах. При видимости от 1 до 10 км при отсутствии осадков обычно наблюдается дымка, при ухудшении видимости до 1 км и менее - туман. В сухую погоду видимость может ухудшаться дымом, пылью или мглою.
Явления - указаны атмосферные явления, наблюдавшиеся в срок или в последний час перед сроком; фигурными скобками обозначены явления, наблюдавшиеся между сроками (за 1-3 часа до срока); квадратными скобками обозначены град или гололедные отложения с указанием их диаметра в мм.
Облачность - указаны через наклонную черту общая и нижняя облачность в баллах и высота нижней границы облаков в метрах; квадратными скобками обозначены формы облаков: Ci - перистые, Cs - перисто-слоистые, Cc - перисто-кучевые, Ac - высококучевые, As - высокослоистые, Sc - слоисто-кучевые, Ns - слоисто-дождевые, Cu - кучевые, Cb - кучево-дождевые. Подробнее классификацию облаков см. в Атласе облаков (PDF).
T - Температура воздуха - температура, измеренная на высоте 2 м над землей.
Td - Температура точки росы - температура, при понижении до которой содержащийся в воздухе водяной пар достигнет насыщения.
f - Относительная влажность воздуха - влажноcть воздуха, измеренная на высоте 2 м над землей.
Te - Эффективная температура - температура, которую ощущает одетый по сезону человек в тени. Характеристика душности погоды. При расчете учитывается влияние влажности воздуха и скорости ветра на теплоощущения человека.
Tes - Эффективная температура на солнце - температура, которую ощущает человек, с поправкой на солнечный нагрев. Характеристика знойности погоды. Зависит от высоты солнца над горизонтом, облачности и скорости ветра. Ночью, в пасмурную погоду, а также при ветре 12 м/с и более поправка равна нулю.
P - Атмосферное давление - приведенное к уровню моря атмосферное давление.
Po - Атмосферное давление - измеренное на уровне метеостанции атмосферное давление.
Tmin - Минимальная температура - минимум температуры воздуха на высоте 2 м над землей.
Tmax - Максимальная температура - максимум температуры воздуха на высоте 2 м над землей.
R - Количество осадков - Количество выпавших осадков за период времени, мм. При наведении курсора мыши на число - период времени, за который выпало указанное количество осадков.
R24 - Количество осадков - Количество выпавших осадков за 24 часа, мм.
S - Снежный покров - Высота снежного покрова, см. При наведении курсора мыши на число - состояние снежного покрова и степень покрытия местности в баллах.